Lapse_Rate
5.8 6.0 6.0 6.0 5.9 5.8 5.8 5.9 5.9 5.8 5.9 6.0 6.1 6.1 6.3 6.3 6.5 6.6 6.6 6.8 6.7 6.8 6.9 6.9 7.1 6.6 7.2 5.9 5.7 6.4 6.8 6.6 8.1 7.7 7.8 7.2 6.9 6.2 5.9 6.0 5.7 5.6 6.3 6.0 5.2
5.6 5.7 5.9 6.0 6.0 6.0 6.0 6.0 5.9 5.9 5.8 5.9 6.0 6.0 6.2 6.4 6.6 6.6 6.7 6.7 6.7 6.8 7.0 7.0 7.1 7.0 6.0 5.8 5.7 6.3 7.1 7.4 7.7 7.8 7.7 7.5 7.1 6.8 6.2 6.4 5.9 5.7 5.7 5.9 5.7
5.6 5.7 5.7 5.8 6.1 6.1 6.1 6.0 6.1 6.1 5.9 5.8 5.8 5.9 5.9 6.2 6.6 6.5 6.6 6.8 6.7 6.8 7.2 7.3 7.0 6.5 5.8 6.0 6.3 7.1 7.3 7.1 7.4 8.1 7.7 7.5 7.0 6.5 6.1 6.0 6.1 6.3 5.9 5.7 5.7
5.5 5.7 5.8 5.8 5.8 6.1 6.1 6.1 6.1 6.0 6.1 6.0 5.9 5.8 5.9 6.0 6.2 6.4 6.7 6.8 6.8 6.7 6.9 7.2 7.0 6.9 6.2 6.3 5.9 6.9 7.5 7.7 7.9 7.4 8.2 7.4 6.6 6.1 6.0 6.2 6.3 6.3 5.9 5.4 5.1
5.4 5.5 5.7 5.8 5.9 5.9 6.0 6.2 6.3 6.2 6.1 6.1 6.1 6.0 5.9 6.0 6.5 6.3 6.6 6.8 6.9 6.9 6.8 7.1 7.1 6.8 6.6 6.6 6.4 6.8 7.1 7.4 7.3 7.8 8.5 8.0 7.5 6.7 6.2 6.2 6.3 6.5 5.6 4.6 4.6
5.2 5.1 5.3 5.6 5.9 5.9 5.8 6.0 6.2 6.3 6.3 6.3 6.2 6.1 6.0 5.8 6.7 6.6 6.6 6.6 6.8 7.0 6.8 7.0 6.8 6.7 7.2 6.6 6.5 6.7 7.4 7.5 6.9 7.3 8.3 7.7 7.5 7.2 6.3 6.2 6.1 5.7 5.4 4.7 4.6
4.9 5.0 5.2 5.2 5.6 5.7 5.7 6.0 6.2 6.2 6.2 6.3 6.3 6.2 6.0 6.3 6.7 6.5 6.7 6.7 6.6 6.8 6.8 6.4 6.1 6.6 6.6 6.6 6.9 7.6 7.3 7.0 7.7 7.6 7.1 7.9 7.2 6.4 6.2 6.1 5.9 5.1 5.0 4.9 4.7
4.9 4.9 4.9 5.1 5.1 5.1 5.4 5.8 5.9 6.1 6.2 6.1 6.1 6.1 5.9 6.3 6.3 6.5 6.6 6.8 6.9 6.8 6.4 6.1 6.8 7.4 7.3 7.0 6.6 7.4 7.4 7.7 7.9 7.0 6.1 7.7 6.9 7.2 6.2 6.3 6.0 5.3 5.1 4.9 4.9
5.1 5.2 5.2 5.1 5.1 5.1 5.2 5.4 5.5 5.7 6.1 6.2 6.2 6.1 5.9 6.0 6.2 6.4 6.6 6.7 6.8 7.0 7.0 7.0 7.7 7.6 7.7 7.8 7.7 7.6 7.7 8.0 7.9 7.6 7.4 7.0 6.6 6.0 5.9 5.6 5.4 5.7 5.5 5.2 4.9
5.1 5.2 5.3 5.3 5.2 5.1 5.1 5.2 5.1 5.1 5.5 6.0 6.2 6.2 6.0 6.1 6.2 6.2 6.5 6.4 6.3 6.8 7.1 7.3 7.4 7.5 7.7 7.9 7.8 8.1 7.7 8.1 8.0 7.9 7.4 7.0 6.3 6.8 6.4 5.6 5.4 5.7 5.7 5.4 5.1
5.1 5.2 5.2 5.2 5.1 5.1 5.0 5.1 5.0 4.9 5.1 5.5 6.0 6.0 5.9 6.0 6.4 6.4 6.0 5.7 5.8 6.0 6.8 7.3 7.2 7.5 7.8 8.3 8.4 8.6 8.1 8.1 7.4 7.6 7.4 7.5 7.2 7.5 7.3 6.3 5.7 5.9 5.8 5.5 5.2
4.9 5.0 5.0 5.0 5.0 4.9 4.9 4.9 5.0 4.6 5.4 5.5 5.7 5.7 5.8 6.0 5.9 6.1 6.1 5.7 5.8 6.1 6.6 6.7 7.0 7.7 8.0 8.4 8.7 9.1 8.2 8.1 7.6 7.1 7.1 7.4 7.5 7.2 6.8 6.3 5.6 5.5 6.0 5.8 5.3
4.8 4.9 4.8 4.8 4.8 4.8 5.0 5.1 5.1 5.0 5.2 5.8 5.8 5.9 6.0 5.9 6.0 5.9 6.1 6.2 6.1 6.3 6.6 6.8 7.6 8.0 8.1 8.6 8.8 9.3 8.6 8.1 7.7 8.2 8.0 7.6 7.3 6.8 6.8 6.4 5.7 5.7 6.0 6.1 5.8
4.9 4.9 4.8 4.7 4.7 5.0 5.1 5.0 4.9 5.1 4.9 5.7 5.9 6.1 6.2 6.4 6.4 6.5 6.4 6.4 6.5 6.6 6.8 7.1 8.0 8.1 8.5 8.6 9.0 9.5 9.3 8.3 8.5 8.1 8.1 8.2 7.8 7.2 6.9 6.5 6.0 6.7 6.2 6.2 6.0
5.1 5.0 5.0 4.8 4.7 4.8 4.9 5.0 5.1 5.1 4.9 5.9 6.2 6.3 6.4 6.8 7.1 6.7 6.9 6.5 6.7 7.1 7.1 7.4 8.2 8.3 8.4 8.8 9.1 8.9 9.1 8.9 9.1 8.6 8.4 8.0 8.2 8.0 7.8 6.8 7.7 7.1 6.0 6.7 6.9
5.1 5.2 5.1 5.0 4.8 4.8 4.8 5.2 5.1 5.0 5.7 6.2 6.5 6.7 6.7 7.0 7.3 7.1 7.0 7.0 7.0 7.3 7.4 7.6 8.2 8.7 8.2 8.5 8.6 8.5 9.0 9.6 9.2 8.8 8.0 8.0 8.0 8.9 8.3 8.4 7.8 7.0 6.8 6.2 6.6
5.1 5.3 5.2 5.3 4.9 5.1 5.2 5.2 5.1 5.5 6.8 6.5 6.6 6.8 7.0 7.3 7.5 7.4 7.3 7.3 7.3 7.3 7.5 7.8 8.0 8.5 8.5 8.4 8.1 8.4 8.8 9.0 8.4 8.1 7.2 8.8 8.7 8.7 9.0 8.8 8.6 8.0 7.8 6.7 6.9
5.1 5.2 5.2 5.2 5.1 5.0 5.2 5.0 5.3 6.6 7.5 7.5 7.1 7.3 7.4 7.7 7.9 7.6 7.6 7.4 7.6 7.7 8.2 8.4 8.3 8.2 7.8 7.9 8.3 8.3 8.6 8.8 7.6 7.3 8.0 9.1 8.9 8.6 9.0 9.2 8.8 8.9 8.6 7.4 6.2
5.1 5.1 5.1 5.1 4.9 4.8 5.2 4.9 6.0 6.7 7.4 8.1 7.8 8.0 7.7 8.1 8.2 7.8 7.8 7.8 8.0 8.2 8.2 9.0 8.8 9.2 8.9 8.8 8.6 8.4 8.5 8.6 8.7 8.8 8.9 9.2 9.3 9.4 9.5 9.5 9.1 9.0 8.6 8.0 7.8
5.0 5.0 5.1 5.3 4.8 5.0 5.2 5.7 6.3 7.2 7.3 7.5 7.9 8.5 8.8 8.9 9.0 8.4 8.2 8.2 8.4 8.7 8.4 8.9 8.7 9.3 9.1 8.6 8.8 8.5 8.6 8.8 8.8 7.7 8.0 8.7 9.1 9.4 9.5 9.3 9.0 8.9 8.9 8.3 7.7
4.9 4.5 4.6 4.8 4.7 5.0 5.5 5.9 6.5 6.9 7.0 7.5 7.9 8.4 8.9 9.4 9.5 9.4 8.7 9.1 8.5 8.1 8.2 8.8 8.6 9.3 9.5 9.2 8.7 8.9 8.6 8.8 9.1 8.9 7.3 6.9 8.7 8.9 9.1 9.2 9.1 8.8 8.2 7.0 6.3
4.9 4.6 4.4 4.7 4.7 4.9 5.7 6.2 6.8 7.3 7.2 7.3 7.7 7.9 8.5 9.5 9.6 9.5 9.4 9.2 8.7 8.4 8.4 8.5 8.4 8.7 9.5 9.5 8.9 9.0 9.0 9.0 8.8 8.7 9.0 8.7 7.8 8.1 8.9 8.2 7.9 7.8 7.5 7.3 6.6
4.9 5.3 4.5 4.8 5.0 5.2 5.9 6.6 7.0 7.6 7.7 7.5 7.7 8.1 9.0 9.4 9.5 9.6 9.6 8.9 8.9 8.7 8.9 8.4 8.6 8.6 9.5 9.7 9.1 8.8 8.8 9.1 9.0 9.0 8.8 8.0 8.4 8.4 8.5 8.7 8.8 8.5 7.8 6.9 7.3
5.0 5.6 5.3 4.7 5.6 5.8 6.2 6.5 7.2 7.7 7.7 7.8 7.8 8.4 8.8 8.9 9.4 9.5 9.1 8.9 8.9 8.9 8.9 8.7 8.5 7.9 7.8 8.4 8.8 9.3 9.1 9.2 9.3 9.0 8.9 8.8 8.3 8.2 8.2 7.5 8.2 8.3 8.5 8.4 8.0
4.9 5.8 4.9 5.6 6.0 6.1 6.5 6.8 7.2 7.6 7.8 7.9 8.2 8.3 8.8 8.8 9.3 9.6 9.0 8.9 8.7 8.8 8.6 8.3 8.5 8.1 7.9 8.2 8.6 9.0 9.4 9.3 9.2 9.0 8.8 8.1 7.5 7.4 7.7 6.4 8.2 8.3 8.5 8.6 8.4
4.9 4.9 6.0 6.6 6.6 6.4 6.7 6.9 7.1 7.8 8.3 8.7 8.5 8.8 8.6 8.7 9.2 9.1 9.2 8.8 8.6 8.4 8.8 8.4 8.4 8.1 8.0 8.4 8.5 8.8 9.3 9.5 9.3 9.0 9.2 8.2 7.3 7.7 7.6 7.6 8.0 7.9 8.0 8.3 8.3
5.0 5.6 5.5 6.5 6.6 6.5 6.9 6.8 7.1 7.6 7.9 8.2 8.5 8.6 8.9 8.9 8.8 8.9 9.0 8.8 8.8 8.6 8.9 8.5 8.2 8.2 8.0 8.4 8.5 8.4 9.0 9.2 9.4 9.0 9.1 8.3 7.6 6.8 7.2 7.4 7.4 6.9 7.2 8.2 8.3
Wind_Speed
21 21 21 21 21 21 21 20 18 18 18 17 15 16 16 18 20 3 5 5 4 12 4 6 9 12 14 3 8 4 3 3 4 17 10 18 18 17 20 19 18 8 17 13 11
21 21 21 21 21 20 20 21 21 19 19 18 17 15 14 15 4 7 5 6 8 10 4 10 11 11 6 4 4 4 3 5 5 5 13 18 17 11 9 20 19 20 18 16 13
21 22 22 21 22 22 21 21 21 20 19 19 17 14 11 10 4 3 8 7 7 8 7 12 15 9 9 5 4 4 2 0 13 13 20 16 15 11 23 20 20 22 19 17 12
21 21 22 23 23 22 22 21 21 22 20 18 16 13 11 4 4 3 7 7 6 4 6 7 8 6 9 8 7 5 8 6 11 11 12 17 16 14 19 21 22 19 17 14 14
20 22 21 22 23 24 23 22 21 21 19 17 15 11 5 3 6 6 8 7 6 4 8 9 9 6 9 10 7 5 13 8 12 15 7 15 17 23 24 23 22 19 17 15 15
22 22 24 23 22 23 24 23 21 19 17 14 11 7 3 4 8 12 9 7 6 7 8 10 8 9 12 13 6 7 16 14 1 13 13 20 18 19 21 22 20 18 15 14 12
22 22 24 25 24 24 23 24 23 19 16 13 6 4 5 9 8 9 9 7 8 10 11 9 6 7 7 11 12 6 9 11 6 11 10 17 12 17 21 20 18 15 14 10 11
25 23 24 26 26 26 25 23 23 18 12 7 1 4 6 5 6 9 9 9 11 11 8 8 9 6 3 6 9 6 5 4 9 18 5 7 1 6 15 19 17 13 11 11 8
24 23 23 25 26 26 26 25 21 15 8 4 3 3 7 2 5 7 9 10 10 5 6 7 6 4 7 5 4 8 6 6 3 12 7 10 5 18 1 7 12 15 9 10 9
24 24 25 26 27 26 30 21 5 9 6 7 8 4 6 7 5 6 7 9 3 6 6 3 2 3 4 2 5 3 6 2 2 6 10 11 8 14 6 5 8 10 13 11 10
26 26 26 26 28 22 13 3 1 0 5 8 5 5 8 9 7 7 8 7 6 5 6 7 3 6 11 11 12 4 7 6 6 16 9 16 11 8 5 7 8 9 13 14 14
27 27 28 29 29 22 4 4 8 5 7 13 17 13 2 7 6 9 8 4 6 7 8 5 8 11 11 13 14 5 8 2 6 13 1 12 6 4 5 3 6 13 13 16 15
26 27 28 32 34 5 5 8 8 8 3 10 15 6 6 5 7 8 8 8 5 8 9 9 10 14 15 12 11 5 11 6 9 8 8 10 2 3 7 11 16 19 17 18 19
27 27 27 34 4 6 5 13 6 3 3 5 6 6 9 7 7 11 8 7 5 9 9 8 14 12 14 10 8 7 14 16 17 5 5 9 4 11 16 22 16 23 19 20 19
27 28 25 11 7 5 9 9 4 4 3 9 7 3 10 7 5 9 11 7 10 7 5 11 11 8 8 11 4 5 10 14 10 7 1 5 4 6 18 21 25 25 24 20 21
27 24 22 2 4 9 12 11 3 1 5 8 5 6 6 8 5 11 7 7 7 8 9 11 10 7 7 4 3 7 8 5 7 4 4 9 8 7 6 11 22 17 20 15 22
31 28 9 7 4 12 7 4 1 3 6 8 8 8 8 8 8 9 7 6 4 2 7 9 9 7 2 1 4 7 4 2 3 2 5 9 9 10 13 10 11 21 21 14 14
32 36 9 7 12 10 5 3 4 9 11 9 9 10 8 10 9 9 6 6 10 9 5 6 7 5 1 4 6 11 7 5 5 4 7 9 6 7 17 11 11 9 12 16 7
32 2 3 4 15 7 2 4 5 5 13 0 6 6 9 10 7 6 9 9 10 11 6 3 6 7 13 8 4 7 5 7 4 5 4 5 9 8 7 12 11 10 12 13 20
6 4 5 12 15 3 2 5 7 13 13 8 3 5 8 11 6 8 8 6 7 4 8 4 6 9 10 6 7 6 4 4 3 2 3 7 7 9 12 14 15 13 13 5 14
3 4 3 9 5 1 4 6 12 18 2 4 9 9 7 7 10 6 7 2 2 5 5 5 1 6 7 4 6 3 4 3 3 5 5 2 6 11 12 11 15 14 6 12 14
4 3 6 6 3 3 7 9 8 20 2 3 7 10 9 10 8 9 8 4 5 3 3 5 2 4 7 8 8 5 6 7 5 7 5 5 2 18 17 21 21 17 18 18 13
5 5 5 4 4 7 12 18 19 18 9 5 6 12 9 7 2 7 7 3 2 4 3 3 4 4 6 5 3 4 5 6 5 1 6 2 2 12 18 18 17 18 16 18 15
3 4 3 5 5 9 12 13 16 11 8 9 5 9 7 7 6 6 7 4 5 4 6 6 1 3 3 8 7 6 8 7 5 3 6 2 6 8 16 15 11 13 16 18 19
3 4 6 5 7 12 11 11 14 17 12 6 7 7 7 5 7 3 13 7 3 5 2 4 2 2 6 10 13 12 5 9 6 4 5 2 10 8 7 16 11 12 13 16 15
3 4 7 10 12 12 11 12 14 16 15 6 5 11 10 5 6 5 7 7 6 3 3 2 2 2 4 9 14 15 8 8 5 2 7 7 16 8 12 5 11 11 12 13 14
3 5 4 7 8 10 9 12 17 13 12 12 6 9 12 4 8 5 7 6 10 9 6 1 1 2 4 6 9 7 5 6 5 8 7 6 5 10 8 9 10 10 12 12 14
Wind_Direction
351 348 346 345 342 339 335 331 329 326 321 320 323 324 326 326 316 182 243 223 180 178 174 279 213 239 260 30 354 353 32 289 310 120 145 80 97 102 129 133 143 150 134 135 125
348 345 344 343 338 337 333 329 327 325 320 318 319 320 324 329 298 253 235 156 150 161 207 236 242 237 61 65 18 7 95 270 32 279 117 111 114 129 99 113 122 118 125 130 135
346 343 342 339 336 336 333 328 324 321 318 315 315 314 316 313 289 231 132 159 187 183 279 298 296 292 83 90 315 276 199 71 256 239 120 128 144 151 117 120 129 136 138 144 155
348 344 339 337 334 333 331 327 323 319 317 313 314 313 311 254 43 94 157 159 189 208 241 270 277 284 114 109 234 293 286 279 296 299 147 156 168 154 136 138 133 137 144 155 155
337 345 340 336 332 328 328 325 321 317 315 314 313 314 283 213 245 133 154 163 180 177 222 250 273 266 123 147 198 232 272 252 292 262 168 113 110 109 116 130 133 144 153 169 170
332 332 338 336 332 326 324 322 319 315 314 314 309 315 251 254 128 148 183 156 207 213 225 247 261 287 137 161 164 209 266 275 147 273 110 126 124 114 127 130 139 152 165 179 169
334 327 331 332 329 325 322 319 317 315 312 312 302 269 266 261 132 166 162 189 224 206 240 246 287 14 21 154 209 237 214 290 97 37 344 113 102 122 131 131 142 158 180 172 158
335 331 331 331 326 322 320 315 310 306 306 308 253 264 248 196 320 173 176 212 231 241 256 331 3 346 269 228 179 163 5 318 112 144 360 49 14 95 126 141 153 168 182 154 140
333 328 321 322 320 323 318 309 297 291 272 266 250 222 274 18 249 211 180 212 233 228 291 288 15 262 311 277 260 181 199 218 156 162 126 70 68 282 23 50 173 163 158 152 149
335 327 319 319 322 326 321 295 274 311 215 217 262 283 264 219 209 209 220 239 173 220 249 210 258 264 289 271 242 151 110 300 141 27 99 90 183 265 236 35 339 184 156 159 152
335 330 324 321 320 328 339 1 46 176 250 223 245 228 164 206 167 209 220 240 195 204 213 221 172 224 237 245 257 182 168 205 177 109 97 162 212 187 122 40 327 283 172 166 161
331 331 326 320 318 319 281 268 302 297 300 242 252 244 341 126 172 197 203 187 203 225 218 284 215 238 236 247 260 122 118 273 293 105 265 192 187 287 93 187 295 280 197 175 166
329 328 327 322 317 291 223 254 312 300 277 285 213 218 244 148 207 209 168 220 219 237 235 213 229 226 248 248 252 173 158 170 245 169 188 158 108 137 220 184 221 250 244 176 174
330 329 328 328 326 339 257 229 278 319 309 235 188 225 210 198 254 195 173 208 243 222 241 234 254 228 230 250 232 275 167 168 231 148 182 169 254 206 196 199 209 231 243 181 175
325 320 323 316 304 291 321 325 348 3 315 140 171 156 156 182 250 168 170 237 254 262 225 257 252 259 251 229 256 236 121 188 209 176 87 255 137 251 211 173 194 223 231 177 177
315 316 328 104 203 248 291 292 332 315 248 171 130 184 194 207 255 148 158 216 267 268 279 253 281 236 246 288 346 296 298 278 175 189 196 208 208 230 192 197 192 174 246 190 175
312 306 297 290 237 316 293 306 297 233 155 150 166 178 210 212 216 142 189 199 239 233 283 270 268 287 112 311 271 272 317 316 346 6 217 226 241 233 196 196 175 164 178 41 193
315 309 223 212 241 284 279 327 252 269 246 154 161 155 211 197 234 165 183 211 234 255 268 205 273 227 324 209 205 231 191 169 191 215 245 252 250 252 195 200 145 142 102 97 61
316 289 216 229 221 255 299 244 237 3 331 126 144 171 203 225 198 148 194 205 220 224 214 307 269 213 192 220 194 279 199 237 325 287 3 249 280 311 136 137 128 138 107 129 137
318 277 251 235 187 211 215 253 292 299 299 350 304 266 198 220 172 156 195 225 246 183 94 329 330 202 177 137 268 189 234 245 332 286 285 293 307 232 151 163 140 148 157 145 170
249 287 161 146 148 195 234 254 283 291 300 342 301 292 257 251 168 183 205 351 94 58 72 47 216 304 110 151 222 276 278 284 146 160 189 269 299 30 52 85 119 74 70 111 85
304 284 174 150 188 214 238 252 264 285 202 232 269 287 283 263 198 173 233 68 19 70 42 56 273 323 250 175 196 244 244 205 133 277 238 167 350 358 34 68 79 71 74 75 73
308 280 267 168 241 253 256 261 257 265 317 178 256 276 273 292 236 189 86 4 136 92 106 49 325 309 321 38 182 208 266 222 214 151 265 111 195 357 24 27 49 50 64 66 49
285 296 229 192 222 253 283 296 300 292 220 288 294 272 298 306 297 103 121 125 70 80 130 101 179 116 237 264 284 233 234 266 200 205 262 326 85 16 19 347 32 52 52 50 42
249 267 353 305 324 333 320 305 279 293 293 197 320 283 279 241 286 148 130 118 123 138 134 147 214 9 318 322 318 314 251 244 277 237 93 136 119 124 116 286 27 41 38 51 51
284 343 339 306 301 306 305 296 296 291 290 248 201 284 298 269 237 225 211 153 165 144 161 260 240 57 300 314 308 315 295 270 225 304 69 86 102 163 189 121 37 31 35 36 42
330 344 321 290 296 287 287 302 302 299 324 315 218 247 266 37 7 51 38 90 160 149 179 99 132 147 238 274 310 323 303 331 22 29 81 110 114 124 88 68 76 44 45 26 34